Location: Gradaro
(45.0833°N, 10.8833°E)
Time: 15:07:24
(UTC+00:00)

H-2A R/B - Pass Details

Date: 29 November 2020
Orbit: 499 x 540 km, 97.3° (Epoch: 22 January)

Event Time Altitude Azimuth Distance (km) Brightness Sun altitude
Rises 04:35:00 0° 17° (NNE) 2,709 6.4 -20.2°
Reaches altitude 10° 04:37:12 10° 24° (NNE) 1,809 5.6 -19.8°
Maximum altitude 04:40:59 46° 98° (E) 727 3.9 -19.2°
Drops below altitude 10° 04:44:42 10° 173° (S) 1,779 5.6 -18.5°
Sets 04:46:50 0° 180° (S) 2,657 6.5 -18.2°
